Location: Arrakis Observatory
(44.1122°N, 95.7153°W)
Time: 04:36:46
(UTC-06:00)

Amateur Radio Satellites - All Passes

Search period start: 18 December 2014 04:06
Search period end: 19 December 2014 04:06
Location: Arrakis Observatory, 44.1122°N, 95.7153°W

Satellite Date Start Highest point End Downlink Frequencies (MHz)
Time Altitude Azimuth
PHONESAT 2.4 18 Dec 04:07:01 04:08:00 11° 148° (SSE) 04:09:00 2401.200-2431.200
AIST 1 18 Dec 04:07:19 04:11:37 77° 81° (E) 04:15:52
JAS-2 18 Dec 04:32:06 04:36:26 22° 90° (E) 04:40:29 435.910
SO-50 18 Dec 04:44:38 04:47:27 15° 32° (NNE) 04:50:16 436.795
CUBESAT XI-V 18 Dec 04:52:11 04:54:30 14° 60° (ENE) 04:56:50 437.345
MOZHAYETS 4 18 Dec 05:12:17 05:16:32 35° 264° (W) 05:20:48
GONETS M04 18 Dec 05:21:19 05:29:18 40° 86° (E) 05:37:17
PRISM 18 Dec 05:23:16 05:27:24 54° 72° (ENE) 05:31:33 437.425
STRAND 1 18 Dec 05:28:42 05:33:05 30° 65° (ENE) 05:37:29 437.568
CUTE-I 18 Dec 05:33:34 05:36:50 16° 90° (E) 05:40:04 437.470
VERMONT LUNAR 18 Dec 05:42:33 05:45:51 37° 168° (SSE) 05:49:09 437.305
PHONESAT 2.4 18 Dec 05:42:47 05:46:02 32° 164° (SSE) 05:49:19 2401.200-2431.200
AO-7 18 Dec 05:50:26 05:58:29 54° 297° (WNW) 06:06:30 29.400- 29.500
JAS-2 18 Dec 06:16:20 06:22:01 52° 291° (WNW) 06:27:10 435.910
SO-50 18 Dec 06:24:03 06:28:55 66° 53° (NE) 06:33:48 436.795
CUBESAT XI-V 18 Dec 06:26:39 06:31:20 76° 258° (WSW) 06:36:02 437.345
Cubesat XI-IV 18 Dec 06:37:58 06:43:15 62° 102° (ESE) 06:48:30 437.490
PRISM 18 Dec 07:00:57 07:03:16 14° 269° (W) 07:05:35 437.425
STRAND 1 18 Dec 07:07:27 07:12:09 37° 263° (W) 07:16:53 437.568
CUTE-I 18 Dec 07:12:07 07:17:24 69° 287° (WNW) 07:22:40 437.470
GONETS M04 18 Dec 07:17:27 07:25:56 49° 286° (WNW) 07:34:27
VERMONT LUNAR 18 Dec 07:20:31 07:23:54 45° 185° (S) 07:27:18 437.305
PHONESAT 2.4 18 Dec 07:20:55 07:24:26 48° 181° (S) 07:27:57 2401.200-2431.200
AO-7 18 Dec 07:45:32 07:49:24 14° 319° (NW) 07:53:17 29.400- 29.500
SO-50 18 Dec 08:05:44 08:08:59 18° 250° (WSW) 08:12:15 436.795
BRITE-PL 18 Dec 08:12:12 08:15:10 17° 92° (E) 08:18:16 437.365/2234.400
CUTE 1.7 + AOD 2 18 Dec 08:13:26 08:15:34 13° 90° (E) 08:17:42 437.475
SEEDS 18 Dec 08:14:15 08:15:44 12° 89° (E) 08:17:12 437.485
Cubesat XI-IV 18 Dec 08:19:06 08:22:52 20° 299° (WNW) 08:26:37 437.490
HO-68 18 Dec 08:27:02 08:33:07 29° 94° (E) 08:39:09 435.675
CINEMA 3 18 Dec 08:41:22 08:41:34 10° 88° (E) 08:41:45 145.822/145.860
GOMX 1 18 Dec 08:51:52 08:55:59 30° 96° (E) 09:00:19 467.674
ANTELSAT 18 Dec 08:52:43 08:55:05 15° 61° (ENE) 08:57:30 437.575/2403.000
CUTE-I 18 Dec 08:55:18 08:56:30 11° 306° (NW) 08:57:41 437.470
VERMONT LUNAR 18 Dec 08:58:59 09:01:51 23° 202° (SSW) 09:04:43 437.305
PHONESAT 2.4 18 Dec 08:59:34 09:02:48 30° 198° (SSW) 09:06:01 2401.200-2431.200
QB50P2 18 Dec 09:06:54 09:08:46 13° 61° (ENE) 09:10:38 145.880/145.840
CUSAT 1 18 Dec 09:07:11 09:08:46 12° 79° (E) 09:10:30 437.405
AAUSAT CUBESAT 2 18 Dec 09:12:41 09:16:38 36° 97° (E) 09:20:33 437.432
POLYITAN 1 18 Dec 09:14:07 09:16:32 15° 62° (ENE) 09:18:57 437.675
CANX-2 18 Dec 09:16:20 09:20:40 70° 102° (ESE) 09:24:58 2200.000
NANOSAT C BR1 18 Dec 09:18:31 09:21:09 16° 63° (ENE) 09:23:48 145.865
UWE-3 18 Dec 09:24:24 09:27:07 15° 91° (E) 09:29:52 435.000/436.395/437.385
GONETS M04 18 Dec 09:25:03 09:25:28 10° 312° (NW) 09:25:52
TIGRISAT 18 Dec 09:28:16 09:32:03 30° 68° (ENE) 09:35:57 435.000
DOVE 4 18 Dec 09:29:30 09:34:05 52° 100° (E) 09:38:56 437.250
O/OREOS (USA 219) 18 Dec 09:30:30 09:31:56 11° 46° (NE) 09:33:22 437.305
FUNcube-1 18 Dec 09:30:42 09:33:16 15° 90° (E) 09:35:49 145.935
QB50P1 18 Dec 09:31:43 09:34:58 22° 66° (ENE) 09:38:14 145.935-145.965
YUBILEINY 18 Dec 09:35:37 09:41:12 18° 58° (ENE) 09:46:45 435.215
DANDE 18 Dec 09:44:17 09:47:06 25° 87° (E) 09:50:36 436.750
COMPASS 1 18 Dec 09:45:51 09:50:09 84° 284° (WNW) 09:54:24 437.405
CUTE 1.7 + AOD 2 18 Dec 09:47:37 09:51:53 59° 286° (WNW) 09:56:07 437.475
DX 1 18 Dec 09:47:39 09:51:35 33° 97° (E) 09:55:29 434.975-435.025
SEEDS 18 Dec 09:47:44 09:52:01 68° 286° (WNW) 09:56:16 437.485
BRITE-PL 18 Dec 09:49:28 09:53:57 56° 287° (WNW) 09:58:46 437.365/2234.400
MaSat-1 18 Dec 09:51:12 09:53:32 81° 296° (WNW) 09:55:48 437.345
UNISAT 6 18 Dec 09:55:23 09:59:39 59° 73° (ENE) 10:04:03 437.425
POPSAT HIP 1 18 Dec 09:59:11 10:03:09 42° 71° (ENE) 10:07:08 437.405
HO-68 18 Dec 10:14:12 10:21:11 58° 293° (WNW) 10:28:07 435.675
Oscar 11 18 Dec 10:14:36 10:19:00 87° 103° (ESE) 10:23:22 145.826/435.025
CINEMA 3 18 Dec 10:14:38 10:19:19 89° 104° (ESE) 10:24:12 145.822/145.860
CUBEBUG 2 18 Dec 10:15:40 10:20:13 59° 101° (E) 10:24:52 437.445
DELFI C3 18 Dec 10:18:31 10:22:41 83° 103° (ESE) 10:26:48 145.870
UKube-1 18 Dec 10:21:23 10:25:44 74° 103° (ESE) 10:30:03 .
50 SAT 18 Dec 10:21:54 10:25:13 23° 94° (E) 10:28:30 437.505
HUMSAT D 18 Dec 10:23:11 10:27:00 30° 96° (E) 10:30:49 437.325/437.525
ESTCUBE 1 18 Dec 10:25:36 10:27:20 12° 89° (E) 10:29:04 437.505/2401.250
ANTELSAT 18 Dec 10:27:01 10:31:20 64° 259° (W) 10:35:47 437.575/2403.000
DUCHIFAT 1 18 Dec 10:28:18 10:32:30 87° 74° (ENE) 10:36:44 145.980
GOMX 1 18 Dec 10:29:59 10:34:05 32° 291° (WNW) 10:38:26 467.674
VELOX 1 18 Dec 10:30:57 10:34:56 32° 97° (E) 10:38:55 145.980
ZACube-1 18 Dec 10:37:52 10:42:23 73° 102° (ESE) 10:46:57 437.345
QB50P2 18 Dec 10:39:56 10:44:08 68° 258° (WSW) 10:48:22 145.880/145.840
BUGSAT 1 18 Dec 10:40:16 10:44:23 84° 257° (WSW) 10:48:29 437.445
CUSAT 1 18 Dec 10:47:34 10:50:57 44° 288° (WNW) 10:55:26 437.405
POLYITAN 1 18 Dec 10:47:54 10:52:02 55° 259° (W) 10:56:12 437.675
AAUSAT CUBESAT 2 18 Dec 10:48:50 10:52:05 22° 294° (WNW) 10:55:19 437.432
NANOSAT C BR1 18 Dec 10:52:34 10:56:39 50° 260° (W) 11:00:46 145.865
CANX-2 18 Dec 10:54:03 10:56:03 13° 299° (WNW) 10:58:02 2200.000
RS-15 18 Dec 10:54:04 11:01:56 23° 101° (E) 11:09:44 29.354- 29.394
UWE-3 18 Dec 10:59:31 11:04:00 58° 287° (WNW) 11:08:33 435.000/436.395/437.385
TIGRISAT 18 Dec 11:05:09 11:08:48 27° 265° (W) 11:12:34 435.000
FUNcube-1 18 Dec 11:05:32 11:09:57 59° 287° (WNW) 11:14:27 145.935
QB50P1 18 Dec 11:06:49 11:10:40 35° 263° (W) 11:14:33 145.935-145.965
O/OREOS (USA 219) 18 Dec 11:07:36 11:12:08 80° 66° (ENE) 11:16:39 437.305
DOVE 4 18 Dec 11:08:13 11:11:32 20° 295° (WNW) 11:14:59 437.250
AISAT 18 Dec 11:12:19 11:16:46 89° 289° (WNW) 11:21:13 437.250
DX 1 18 Dec 11:24:08 11:27:41 25° 294° (WNW) 11:31:13 434.975-435.025
DANDE 18 Dec 11:27:53 11:30:37 20° 297° (WNW) 11:33:58 436.750
CUBEBUG 1 18 Dec 11:27:57 11:32:11 50° 100° (E) 11:36:23 437.445
YUBILEINY 18 Dec 11:30:50 11:39:34 80° 81° (E) 11:48:17 435.215
UNISAT 6 18 Dec 11:34:37 11:36:53 14° 271° (W) 11:39:11 437.425
POPSAT HIP 1 18 Dec 11:36:22 11:39:15 18° 268° (W) 11:42:09 437.405
Oscar 11 18 Dec 11:53:24 11:54:29 11° 301° (WNW) 11:55:34 145.826/435.025
CUBEBUG 2 18 Dec 11:53:34 11:56:30 17° 297° (WNW) 11:59:28 437.445
CINEMA 3 18 Dec 11:54:10 11:55:53 12° 300° (WNW) 11:57:38 145.822/145.860
DELFI C3 18 Dec 11:56:43 11:57:18 10° 300° (WNW) 11:57:52 145.870
50 SAT 18 Dec 11:56:46 12:00:29 32° 291° (WNW) 12:04:12 437.505
Oscar 19 18 Dec 11:57:08 12:01:13 24° 63° (ENE) 12:05:19 437.125/150
HUMSAT D 18 Dec 11:59:04 12:02:43 27° 292° (WNW) 12:06:22 437.325/437.525
UKube-1 18 Dec 11:59:28 12:01:18 13° 300° (WNW) 12:03:08 .
ESTCUBE 1 18 Dec 12:00:13 12:04:43 71° 286° (WNW) 12:09:10 437.505/2401.250
HO-68 18 Dec 12:04:30 12:07:25 13° 314° (NW) 12:10:20 435.675
VELOX 1 18 Dec 12:07:45 12:11:24 26° 294° (WNW) 12:15:03 145.980
ITAMSAT 1 18 Dec 12:09:20 12:11:38 13° 57° (ENE) 12:13:56 435.822/435.867
ZACube-1 18 Dec 12:16:00 12:18:12 14° 299° (WNW) 12:20:25 437.345
SWISSCUBE 18 Dec 12:30:39 12:31:18 10° 87° (E) 12:31:58 437.505
SPROUT 18 Dec 12:46:11 12:50:30 85° 104° (ESE) 12:54:48 437.525
O/OREOS (USA 219) 18 Dec 12:49:50 12:50:50 11° 263° (W) 12:51:50 437.305
TISAT 1 18 Dec 12:51:15 12:55:29 79° 285° (WNW) 12:59:42 437.305
AISAT 18 Dec 12:51:42 12:52:41 11° 302° (WNW) 12:53:41 437.250
BEESAT 18 Dec 12:54:00 12:57:10 18° 91° (E) 13:00:20 436.000
RS-15 18 Dec 13:01:43 13:12:41 89° 123° (ESE) 13:23:44 29.354- 29.394
CUBEBUG 1 18 Dec 13:05:22 13:08:11 17° 297° (WNW) 13:10:59 437.445
AO-7 18 Dec 13:10:47 13:15:09 16° 42° (NE) 13:19:32 29.400- 29.500
BEESAT 3 18 Dec 13:22:18 13:25:14 19° 112° (ESE) 13:28:11 437.485
Gurwin Techsat 1B 18 Dec 13:26:07 13:30:57 37° 67° (ENE) 13:35:48 435.225
YUBILEINY 18 Dec 13:29:06 13:35:20 23° 281° (WNW) 13:41:34 435.215
HORYU 2 18 Dec 13:31:51 13:34:26 15° 61° (ENE) 13:37:02 437.375
PCSat 18 Dec 13:32:27 13:36:16 20° 106° (ESE) 13:40:06 145.827
Oscar 19 18 Dec 13:35:20 13:40:16 46° 261° (W) 13:45:15 437.125/150
AUBIESAT-1 18 Dec 13:35:31 13:38:00 15° 94° (E) 13:40:22 437.475
ITAMSAT 1 18 Dec 13:45:09 13:50:20 86° 75° (ENE) 13:55:33 435.822/435.867
M-CUBED/EXP-1 PRIME 18 Dec 13:58:16 14:02:09 29° 99° (E) 14:05:44 437.505
BEESAT 2 18 Dec 13:58:45 14:02:36 40° 117° (ESE) 14:06:32 435.950
ITUPSAT 1 18 Dec 14:04:27 14:09:15 83° 104° (ESE) 14:14:01 437.325
SWISSCUBE 18 Dec 14:05:02 14:09:50 88° 285° (WNW) 14:14:35 437.505
SPROUT 18 Dec 14:24:54 14:25:56 11° 301° (WNW) 14:26:57 437.525
BEESAT 18 Dec 14:30:41 14:35:21 54° 289° (WNW) 14:39:59 436.000
ISS 18 Dec 14:32:32 14:35:30 31° 139° (SE) 14:38:29 145.825
KKS-1 18 Dec 14:36:54 14:41:06 39° 98° (E) 14:45:18 437.445
STARS 18 Dec 14:38:47 14:42:37 28° 96° (E) 14:46:26 437.465
JAS-2 18 Dec 14:46:01 14:50:40 18° 56° (NE) 14:55:04 435.910
AIST 2 18 Dec 14:51:41 14:55:53 67° 121° (ESE) 15:00:10 435.215
AO-7 18 Dec 14:58:08 15:06:13 59° 64° (ENE) 15:14:22 29.400- 29.500
BEESAT 3 18 Dec 14:59:07 15:03:05 46° 310° (NW) 15:07:08 437.485
HORYU 2 18 Dec 15:06:11 15:10:36 63° 258° (WSW) 15:15:04 437.375
Gurwin Techsat 1B 18 Dec 15:06:17 15:10:57 31° 265° (W) 15:15:38 435.225
AUBIESAT-1 18 Dec 15:09:00 15:13:25 56° 293° (WNW) 15:17:25 437.475
PCSat 18 Dec 15:13:48 15:19:10 64° 304° (NW) 15:24:34 145.827
RS-15 18 Dec 15:16:48 15:26:33 36° 331° (NNW) 15:36:31 29.354- 29.394
ITAMSAT 1 18 Dec 15:28:29 15:30:30 12° 272° (W) 15:32:31 435.822/435.867
GONETS M04 18 Dec 15:29:44 15:36:08 22° 60° (ENE) 15:42:26
M-CUBED/EXP-1 PRIME 18 Dec 15:33:10 15:37:08 30° 299° (WNW) 15:40:48 437.505
BEESAT 2 18 Dec 15:37:30 15:40:59 25° 316° (NW) 15:44:31 435.950
ITUPSAT 1 18 Dec 15:44:17 15:46:28 13° 302° (WNW) 15:48:38 437.325
SWISSCUBE 18 Dec 15:45:14 15:46:56 12° 303° (WNW) 15:48:38 437.505
ISS 18 Dec 16:08:51 16:12:01 42° 337° (NNW) 16:15:11 145.825
KKS-1 18 Dec 16:14:04 16:17:31 22° 295° (WNW) 16:20:58 437.445
STARS 18 Dec 16:15:12 16:19:03 30° 293° (WNW) 16:22:54 437.465
Cubesat XI-IV 18 Dec 16:24:01 16:27:28 18° 59° (ENE) 16:30:56 437.490
JAS-2 18 Dec 16:27:05 16:34:48 79° 73° (ENE) 16:41:52 435.910
AIST 2 18 Dec 16:31:53 16:34:57 19° 321° (NW) 16:38:03 435.215
AIST 1 18 Dec 16:38:25 16:42:33 42° 93° (E) 16:46:41
AO-7 18 Dec 16:52:01 16:59:22 34° 264° (W) 17:06:47 29.400- 29.500
CUTE-I 18 Dec 16:56:29 17:01:08 32° 65° (ENE) 17:05:48 437.470
PCSat 18 Dec 17:00:42 17:03:41 15° 326° (NW) 17:06:41 145.827
MOZHAYETS 4 18 Dec 17:05:40 17:10:11 50° 99° (E) 17:14:39
GONETS M04 18 Dec 17:25:24 17:34:14 89° 263° (W) 17:42:57
RS-15 18 Dec 17:34:34 17:43:18 26° 6° (N) 17:52:15 29.354- 29.394
ISS 18 Dec 17:46:34 17:49:12 21° 357° (N) 17:51:49 145.825
Cubesat XI-IV 18 Dec 18:01:40 18:06:59 71° 257° (WSW) 18:12:20 437.490
JAS-2 18 Dec 18:14:41 18:20:20 22° 270° (W) 18:25:43 435.910
AIST 1 18 Dec 18:17:20 18:20:25 19° 290° (WNW) 18:23:31
CUBESAT XI-V 18 Dec 18:22:40 18:26:25 24° 94° (E) 18:30:08 437.345
CUTE-I 18 Dec 18:36:14 18:41:07 36° 263° (W) 18:46:01 437.470
PRISM 18 Dec 18:40:22 18:44:33 75° 103° (ESE) 18:48:41 437.425
MOZHAYETS 4 18 Dec 18:43:46 18:47:02 19° 297° (WNW) 18:50:17
HO-68 18 Dec 18:57:47 19:03:36 28° 57° (ENE) 19:09:25 435.675
CUTE 1.7 + AOD 2 18 Dec 19:08:50 19:10:47 13° 61° (ENE) 19:12:45 437.475
SEEDS 18 Dec 19:09:08 19:10:24 11° 60° (ENE) 19:11:41 437.485
STRAND 1 18 Dec 19:15:55 19:21:01 67° 102° (ESE) 19:26:04 437.568
MaSat-1 18 Dec 19:21:14 19:23:21 28° 247° (WSW) 19:25:35 437.345
ISS 18 Dec 19:23:31 19:26:28 30° 17° (NNE) 19:29:25 145.825
GONETS M04 18 Dec 19:24:11 19:29:44 19° 284° (WNW) 19:35:16
BRITE-PL 18 Dec 19:25:33 19:28:34 20° 65° (ENE) 19:31:33 437.365/2234.400
CUSAT 1 18 Dec 19:40:06 19:46:23 29° 68° (ENE) 19:53:24 437.405
CINEMA 3 18 Dec 19:45:32 19:46:08 10° 59° (ENE) 19:46:43 145.822/145.860
RS-15 18 Dec 19:48:51 19:59:28 46° 38° (NE) 20:10:28 29.354- 29.394
CUBESAT XI-V 18 Dec 19:59:43 20:03:57 36° 291° (WNW) 20:08:08 437.345
GOMX 1 18 Dec 20:02:28 20:06:11 33° 69° (ENE) 20:09:56 467.674
AAUSAT CUBESAT 2 18 Dec 20:05:37 20:09:19 31° 69° (ENE) 20:13:04 437.432
CANX-2 18 Dec 20:10:49 20:15:00 60° 74° (ENE) 20:19:15 2200.000
PRISM 18 Dec 20:18:02 20:19:29 12° 300° (WNW) 20:20:56 437.425
DANDE 18 Dec 20:20:44 20:27:43 46° 73° (ENE) 20:35:49 436.750
UWE-3 18 Dec 20:24:17 20:26:36 15° 62° (ENE) 20:28:57 435.000/436.395/437.385
FUNcube-1 18 Dec 20:29:16 20:31:26 14° 61° (ENE) 20:33:37 145.935
DOVE 4 18 Dec 20:37:28 20:41:32 58° 74° (ENE) 20:45:39 437.250
COMPASS 1 18 Dec 20:38:47 20:42:59 81° 75° (ENE) 20:47:16 437.405
AISAT 18 Dec 20:38:47 20:40:21 12° 59° (ENE) 20:41:55 437.250
SEEDS 18 Dec 20:41:20 20:45:35 80° 257° (WSW) 20:49:53 437.485
CUTE 1.7 + AOD 2 18 Dec 20:41:55 20:46:09 69° 259° (WSW) 20:50:27 437.475
SO-50 18 Dec 20:42:37 20:44:57 14° 108° (ESE) 20:47:18 436.795
HO-68 18 Dec 20:43:37 20:50:45 67° 256° (WSW) 20:57:56 435.675
DX 1 18 Dec 20:44:51 20:48:48 35° 69° (ENE) 20:52:46 434.975-435.025
STRAND 1 18 Dec 20:56:21 20:59:40 18° 300° (WNW) 21:02:59 437.568
ISS 18 Dec 21:00:00 21:03:14 61° 215° (SW) 21:06:27 145.825
BRITE-PL 18 Dec 21:02:59 21:06:54 37° 262° (W) 21:10:45 437.365/2234.400
DELFI C3 18 Dec 21:08:24 21:12:28 64° 74° (ENE) 21:16:34 145.870
Oscar 11 18 Dec 21:10:42 21:15:02 81° 76° (ENE) 21:19:25 145.826/435.025
50 SAT 18 Dec 21:12:30 21:15:17 18° 65° (ENE) 21:18:06 437.505
CUBEBUG 2 18 Dec 21:15:55 21:20:00 56° 73° (ENE) 21:24:11 437.445
HUMSAT D 18 Dec 21:17:24 21:20:49 26° 67° (ENE) 21:24:17 437.325/437.525
UKube-1 18 Dec 21:17:50 21:22:10 77° 74° (ENE) 21:26:31 .
CINEMA 3 18 Dec 21:18:30 21:22:39 83° 257° (WSW) 21:26:55 145.822/145.860
CUSAT 1 18 Dec 21:22:30 21:29:54 70° 264° (W) 21:38:20 437.405
ESTCUBE 1 18 Dec 21:26:52 21:29:28 15° 61° (ENE) 21:32:04 437.505/2401.250
VELOX 1 18 Dec 21:30:23 21:34:25 36° 69° (ENE) 21:38:28 145.980
AIST 2 18 Dec 21:35:11 21:37:17 13° 34° (NNE) 21:39:21 435.215
ZACube-1 18 Dec 21:35:42 21:39:50 68° 74° (ENE) 21:44:05 437.345
BEESAT 3 18 Dec 21:39:46 21:43:10 23° 43° (NE) 21:46:32 437.485
GOMX 1 18 Dec 21:41:17 21:44:27 21° 267° (W) 21:47:37 467.674
AAUSAT CUBESAT 2 18 Dec 21:41:35 21:45:01 24° 266° (W) 21:48:29 437.432
UNISAT 6 18 Dec 21:47:59 21:49:53 12° 89° (E) 21:51:48 437.425
CANX-2 18 Dec 21:49:20 21:51:21 13° 271° (W) 21:53:23 2200.000
UWE-3 18 Dec 21:58:34 22:02:40 57° 260° (W) 22:06:53 435.000/436.395/437.385
RS-15 18 Dec 22:01:25 22:12:30 67° 243° (WSW) 22:24:07 29.354- 29.394
FUNcube-1 18 Dec 22:03:10 22:07:16 60° 259° (W) 22:11:30 145.935
DANDE 18 Dec 22:04:15 22:11:11 44° 268° (W) 22:19:09 436.750
AISAT 18 Dec 22:11:54 22:16:20 82° 257° (WSW) 22:20:47 437.250
TISAT 1 18 Dec 22:13:42 22:14:14 10° 59° (ENE) 22:14:46 437.305
DUCHIFAT 1 18 Dec 22:13:54 22:15:51 13° 90° (E) 22:17:47 145.980
PCSat 18 Dec 22:17:21 22:21:54 26° 44° (NE) 22:26:26 145.827
BEESAT 2 18 Dec 22:17:21 22:21:23 42° 49° (NE) 22:25:21 435.950
ANTELSAT 18 Dec 22:18:05 22:21:58 25° 94° (E) 22:25:52 437.575/2403.000
DOVE 4 18 Dec 22:18:08 22:19:46 12° 271° (W) 22:21:24 437.250
SO-50 18 Dec 22:20:18 22:24:50 74° 306° (NW) 22:29:33 436.795
DX 1 18 Dec 22:21:42 22:25:08 23° 266° (W) 22:28:34 434.975-435.025
BUGSAT 1 18 Dec 22:23:18 22:24:58 12° 90° (E) 22:26:37 437.445
QB50P2 18 Dec 22:25:07 22:28:01 18° 92° (E) 22:30:55 145.880/145.840
CUBEBUG 1 18 Dec 22:25:42 22:29:56 51° 72° (ENE) 22:34:10 437.445
POLYITAN 1 18 Dec 22:32:52 22:36:10 21° 94° (E) 22:39:28 437.675
NANOSAT C BR1 18 Dec 22:36:54 22:40:18 23° 94° (E) 22:43:42 145.865
HO-68 18 Dec 22:37:58 22:39:46 11° 275° (W) 22:41:35 435.675
YUBILEINY 18 Dec 22:40:54 22:46:17 18° 76° (ENE) 22:51:38 435.215
50 SAT 18 Dec 22:46:28 22:50:14 39° 262° (W) 22:54:04 437.505
DELFI C3 18 Dec 22:46:45 22:48:10 12° 271° (W) 22:49:35 145.870
QB50P1 18 Dec 22:50:37 22:54:27 32° 97° (E) 22:58:17 145.935-145.965
HUMSAT D 18 Dec 22:52:57 22:56:32 28° 264° (W) 23:00:11 437.325/437.525
TIGRISAT 18 Dec 22:54:27 22:59:04 56° 100° (E) 23:03:42 435.000
CUBEBUG 2 18 Dec 22:55:08 22:57:08 13° 271° (W) 22:59:09 437.445
UKube-1 18 Dec 22:58:14 22:58:51 10° 271° (W) 22:59:28 .
ESTCUBE 1 18 Dec 23:01:19 23:05:50 64° 259° (WSW) 23:10:22 437.505/2401.250
VELOX 1 18 Dec 23:07:35 23:11:06 23° 266° (W) 23:14:37 145.980
CUSAT 1 18 Dec 23:08:06 23:12:03 15° 279° (W) 23:16:12 437.405
AIST 2 18 Dec 23:12:24 23:16:42 70° 54° (NE) 23:20:57 435.215
ZACube-1 18 Dec 23:15:35 23:16:44 11° 272° (W) 23:17:53 437.345
BEESAT 3 18 Dec 23:17:33 23:21:33 45° 242° (WSW) 23:25:30 437.485
POPSAT HIP 1 18 Dec 23:18:45 23:23:00 66° 102° (ESE) 23:27:15 437.405
UNISAT 6 18 Dec 23:22:29 23:27:11 76° 285° (WNW) 23:31:54 437.425
ITUPSAT 1 18 Dec 23:37:35 23:40:16 15° 60° (ENE) 23:42:57 437.325
SWISSCUBE 18 Dec 23:37:39 23:40:36 16° 61° (ENE) 23:43:33 437.505
SPROUT 18 Dec 23:41:49 23:46:05 79° 75° (ENE) 23:50:23 437.525
TISAT 1 18 Dec 23:45:11 23:49:23 86° 256° (WSW) 23:53:37 437.305
DUCHIFAT 1 18 Dec 23:47:54 23:52:06 60° 287° (WNW) 23:56:17 145.980
ANTELSAT 18 Dec 23:54:31 23:58:50 37° 291° (WNW) 00:03:11 437.575/2403.000
BEESAT 2 18 Dec 23:56:10 23:59:23 22° 247° (WSW) 00:02:33 435.950
BUGSAT 1 18 Dec 23:56:51 00:00:50 57° 287° (WNW) 00:04:49 437.445
QB50P2 19 Dec 00:00:06 00:04:09 44° 289° (WNW) 00:08:12 145.880/145.840
PCSat 19 Dec 00:00:21 00:05:41 58° 244° (WSW) 00:10:58 145.827
BEESAT 19 Dec 00:01:58 00:05:50 25° 65° (ENE) 00:09:43 436.000
SO-50 19 Dec 00:03:28 00:06:14 15° 328° (NNW) 00:09:03 436.795
CUBEBUG 1 19 Dec 00:03:56 00:06:36 16° 269° (W) 00:09:16 437.445
POLYITAN 1 19 Dec 00:08:18 00:12:13 36° 290° (WNW) 00:16:09 437.675
NANOSAT C BR1 19 Dec 00:12:25 00:16:14 33° 291° (WNW) 00:20:03 145.865
RS-15 19 Dec 00:17:08 00:22:40 15° 264° (W) 00:28:20 29.354- 29.394
AUBIESAT-1 19 Dec 00:24:29 00:28:41 30° 61° (ENE) 00:32:56 437.475
QB50P1 19 Dec 00:26:46 00:30:12 24° 293° (WNW) 00:33:39 145.935-145.965
TIGRISAT 19 Dec 00:32:14 00:35:24 18° 297° (WNW) 00:38:34 435.000
YUBILEINY 19 Dec 00:32:59 00:41:44 87° 96° (E) 00:50:30 435.215
M-CUBED/EXP-1 PRIME 19 Dec 00:48:01 00:52:42 53° 66° (ENE) 00:57:30 437.505
AIST 2 19 Dec 00:52:44 00:54:45 13° 251° (WSW) 00:56:46 435.215
POPSAT HIP 1 19 Dec 00:56:19 00:58:23 13° 299° (WNW) 01:00:27 437.405
ITUPSAT 1 19 Dec 01:12:46 01:17:34 73° 257° (WSW) 01:22:24 437.325
SWISSCUBE 19 Dec 01:13:10 01:17:57 66° 258° (WSW) 01:22:44 437.505
O/OREOS (USA 219) 19 Dec 01:21:12 01:25:37 70° 111° (ESE) 01:30:04 437.305
KKS-1 19 Dec 01:36:41 01:40:52 43° 70° (ENE) 01:45:05 437.445
STARS 19 Dec 01:37:36 01:41:25 30° 68° (ENE) 01:45:16 437.465
BEESAT 19 Dec 01:38:59 01:43:28 40° 262° (W) 01:48:00 436.000
Gurwin Techsat 1B 19 Dec 01:42:35 01:44:45 12° 88° (E) 01:46:55 435.225
Oscar 19 19 Dec 01:45:06 01:50:13 55° 100° (E) 01:55:19 437.125/150
ITAMSAT 1 19 Dec 01:57:01 02:01:23 27° 95° (E) 02:05:43 435.822/435.867
AUBIESAT-1 19 Dec 01:59:03 02:03:29 37° 258° (WSW) 02:08:01 437.475
M-CUBED/EXP-1 PRIME 19 Dec 02:24:23 02:27:57 21° 263° (W) 02:31:37 437.505
YUBILEINY 19 Dec 02:33:19 02:39:45 22° 299° (WNW) 02:46:12 435.215
AIST 1 19 Dec 02:45:41 02:47:41 13° 67° (ENE) 02:49:39
HORYU 2 19 Dec 02:56:52 03:00:27 23° 94° (E) 03:04:01 437.375
AO-7 19 Dec 03:00:08 03:04:39 15° 87° (E) 03:09:09 29.400- 29.500
O/OREOS (USA 219) 19 Dec 03:02:56 03:05:32 15° 310° (NW) 03:08:10 437.305
STARS 19 Dec 03:14:10 03:17:53 27° 265° (W) 03:21:38 437.465
KKS-1 19 Dec 03:14:33 03:17:43 19° 267° (W) 03:20:54 437.445
Gurwin Techsat 1B 19 Dec 03:20:04 03:25:24 87° 285° (WNW) 03:30:43 435.225
Oscar 19 19 Dec 03:25:18 03:29:09 21° 298° (WNW) 03:33:00 437.125/150
VERMONT LUNAR 19 Dec 03:27:20 03:28:57 13° 150° (SSE) 03:30:34 437.305
ITAMSAT 1 19 Dec 03:36:10 03:40:59 40° 292° (WNW) 03:45:47 435.822/435.867
